[[{"header":{"parameterUnit":"m.s-1","parameterCategory":1,"la1":30.2991,"la2":30.254,"lo1":-89.0895,"lo2":-89.0444,"dy":0.0017,"dx":0.0017,"nx":28,"ny":28,"refTime":"2023-10-03T03:00:00:Z","depth":0,"parameterNumber":2,"parameterNumberName":"U-component_of_WINDS"},"data":[0,0,0,0,0,0,0,0,0,0,0,0,0,0,0,0,0,0,0,0,0,0,0,0,0,0,0,0,0,0,0,0,0,0,0,0,0,0,0,0,0,0,0,0,0,0,0,0,0,0,0,0,0,0,0,0,0,0,-4.1069,-4.107,0,-4.1128,-4.1129,-4.1129,-4.1039,-4.1036,-4.1033,-4.103,-4.1089,-4.1094,-4.1098,0,0,0,0,0,0,0,0,0,0,0,0,0,-4.088,-4.0883,-4.1069,-4.107,-4.1071,-4.1128,-4.1129,-4.1129,-4.104,-4.1036,-4.1032,-4.1028,-4.1088,-4.1093,-4.1098,0,0,0,0,0,0,0,0,0,0,0,0,0,-4.0952,-4.0885,-4.1069,-4.1033,-4.103,-4.1128,-4.1129,-4.113,-4.104,-4.1036,-4.1031,-4.1027,-4.1086,-4.1093,-4.1099,-4.1235,0,0,-4.112,-4.1123,0,0,0,0,0,0,0,0,-4.0948,-4.096,-4.1037,-4.1036,-4.1033,-4.1071,-4.1083,-4.1165,-4.1042,-4.1037,-4.103,-4.1024,-4.1087,-4.1093,-4.1115,-4.1238,-4.124,-4.112,-4.1125,-4.1127,-4.1129,0,0,0,0,0,0,0,-4.0944,-4.0956,-4.1092,-4.1039,-4.1036,-4.1014,-4.1019,-4.1098,-4.1087,-4.1037,-4.103,-4.1038,-4.1085,-4.1108,-4.1115,-4.1241,-4.112,-4.1126,-4.113,-4.1133,-4.1477,-4.1482,0,0,0,0,0,0,-4.0943,-4.0953,-4.1091,-4.1094,-4.0978,-4.1021,-4.1027,-4.1064,-4.1086,-4.1085,-4.1042,-4.1034,-4.1099,-4.1108,-4.1117,-4.1276,-4.1127,-4.1134,-4.1138,-4.1472,-4.1478,-4.1484,0,0,0,0,0,0,-4.0939,-4.0956,-4.1088,-4.1022,-4.1037,-4.1029,-4.1071,-4.1067,-4.1091,-4.1091,-4.1088,-4.1068,-4.1096,-4.1108,-4.1206,-4.1277,-4.1137,-4.1143,-4.1466,-4.1474,-4.1481,-4.1596,0,0,0,0,0,0,-4.0934,-4.0955,-4.1007,-4.1024,-4.1041,-4.1176,-4.1076,-4.1072,-4.1103,-4.1092,-4.1114,-4.1113,-4.1093,-4.1196,-4.1213,-4.1283,-4.1148,-4.146,-4.147,-4.1479,-4.1585,-4.1606,-4.1624,0,0,0,0,0,-4.0928,-4.1037,-4.101,-4.1027,-4.1105,-4.1181,-4.119,-4.1165,-4.1109,-4.116,-4.116,-4.1113,-4.1267,-4.1207,-4.1225,-4.1299,-4.1455,-4.1467,-4.1478,-4.1577,-4.1602,-4.1623,0,0,0,0,0,0,-4.1027,-4.1038,-4.1008,-4.1126,-4.1153,-4.1165,-4.1229,-4.1193,-4.1236,-4.1224,-4.1191,-4.1197,-4.1302,-4.1311,-4.1244,-4.1431,-4.1352,-4.1367,-4.1421,-4.1445,-4.1464,-4.1458,-4.1154,0,0,0,0,0,-4.1063,-4.1124,-4.113,-4.1233,-4.1249,-4.1237,-4.1269,-4.1247,-4.1274,-4.1285,-4.1292,-4.1319,-4.1374,-4.141,-4.1461,-4.1587,-4.159,-4.1647,-4.1666,-4.1682,-4.1695,-4.1761,-4.1786,-4.1522,-4.1522,-4.1521,0,0,-4.1137,-4.1151,-4.1191,-4.1254,-4.1272,-4.1335,-4.1247,-4.1318,-4.1364,-4.1295,-4.1388,-4.1395,-4.1423,-4.1536,-4.1586,-4.1547,-4.1769,-4.1697,-4.1709,-4.1714,-4.1776,-4.1801,-4.1823,-4.1529,-4.1528,-4.1527,0,0,-4.1304,-4.1322,-4.1409,-4.1429,-4.1458,-4.145,-4.1472,-4.149,-4.1491,-4.1584,-4.1534,-4.1589,-4.1684,-4.1706,-4.173,-4.1907,-4.1865,-4.1925,-4.2024,-4.209,-4.211,-4.2129,-4.219,-4.2213,-4.1938,-4.1939,-4.1939,0,-4.1392,-4.1486,-4.1458,-4.1532,-4.1561,-4.1503,-4.159,-4.1612,-4.1656,-4.1677,-4.1633,-4.175,-4.1766,-4.1882,-4.1926,-4.1948,-4.197,-4.192,-4.211,-4.2128,-4.2144,-4.2202,-4.2226,-4.1945,-4.1945,-4.1944,-4.1943,0,-4.1592,-4.1658,-4.1725,-4.1769,-4.1805,-4.1886,-4.1871,-4.1911,-4.1887,-4.1884,-4.1979,-4.1996,-4.2048,-4.2075,-4.2052,-4.2188,-4.2163,-4.2115,-4.2034,-4.2177,-4.2231,-4.2253,-4.1955,-4.1953,-4.1951,-4.1949,0,0,-4.182,-4.1849,-4.1874,-4.1893,-4.1922,-4.1972,-4.2051,-4.2102,-4.2136,-4.217,-4.2234,-4.2317,-4.2273,-4.23,-4.2279,-4.2337,-4.2474,-4.2282,-4.2282,-4.2315,-4.2624,-4.2658,-4.2684,-4.2448,-4.2452,-4.2456,-4.2621,0,-4.1984,-4.2119,-4.2097,-4.2228,-4.2287,-4.2234,-4.2302,-4.2327,-4.2327,-4.2378,-4.2377,-4.2435,-4.2374,-4.239,-4.2445,-4.2446,-4.2536,-4.2434,-4.2506,-4.2509,-4.2497,-4.2713,-4.2749,-4.2904,-4.2642,-4.2646,-4.2648,0,-4.2193,-4.2234,-4.2371,-4.239,-4.2414,-4.2476,-4.2521,-4.2571,-4.2598,-4.2594,-4.2625,-4.2595,-4.2673,-4.2594,-4.27,-4.2632,-4.266,-4.2666,-4.2671,-4.2674,-4.2585,-4.2719,-4.2953,-4.2975,-4.2682,-4.2679,-4.2677,0,-4.2343,-4.2433,-4.2526,-4.2544,-4.257,-4.2614,-4.2627,-4.265,-4.2682,-4.2722,-4.2743,-4.2792,-4.2818,-4.2857,-4.284,-4.2785,-4.295,-4.2869,-4.2947,-4.2948,-4.2982,-4.2979,-4.322,-4.3006,-4.3005,-4.3005,-4.3004,0,-4.2527,-4.2612,-4.2593,-4.265,-4.2744,-4.2718,-4.2812,-4.2818,-4.284,-4.2897,-4.2855,-4.2909,-4.2885,-4.2938,-4.2926,-4.3015,-4.3028,-4.3026,-4.3021,-4.3028,-4.3028,-4.3044,-4.3032,-4.3011,-4.3009,-4.3008,-4.3007,0,-4.2709,-4.27,-4.2797,-4.2814,-4.282,-4.2888,-4.2902,-4.2956,-4.2953,-4.3026,-4.3041,-4.3037,-4.3097,-4.3085,-4.3152,-4.3143,-4.3255,-4.3238,-4.3245,-4.324,-4.3318,-4.331,-4.3575,-4.3608,-4.3375,-4.3377,-4.3379,0,-4.2825,-4.2889,-4.2913,-4.2948,-4.2964,-4.3022,-4.3055,-4.3033,-4.3069,-4.3106,-4.3155,-4.3212,-4.3255,-4.3354,-4.3357,-4.3407,-4.339,-4.348,-4.3397,-4.3402,-4.3388,-4.3384,-4.3389,-4.3495,-4.3498,-4.35,-4.3502,0,-4.3032,-4.3025,-4.3074,-4.3122,-4.3162,-4.3199,-4.3232,-4.3263,-4.3244,-4.3287,-4.3348,-4.3382,-4.345,-4.3507,-4.3554,-4.3567,-4.3531,-4.3528,-4.3548,-4.3554,-4.3555,-4.3553,-4.3287,-4.3521,-4.3519,-4.3518,-4.3517,-4.3516,-4.3183,-4.3237,-4.3262,-4.3318,-4.3341,-4.3372,-4.3423,-4.3427,-4.3478,-4.3531,-4.3516,-4.3585,-4.3612,-4.3672,-4.369,-4.3744,-4.371,-4.374,-4.3747,-4.3754,-4.3763,-4.3549,-4.3753,-4.3753,-4.3752,-4.3752,-4.3751,0,-4.3385,-4.3399,-4.3451,-4.3498,-4.3543,-4.3507,-4.3541,-4.358,-4.3642,-4.367,-4.3714,-4.3784,-4.3839,-4.3847,-4.3899,-4.394,-4.3925,-4.3955,-4.395,-4.3953,-4.3791,-4.3767,-4.3966,-4.3966,-4.3966,-4.3966,-4.3966,-4.3966,-4.3495,-4.3584,-4.3581,-4.3681,-4.3694,-4.3761,-4.3784,-4.3813,-4.3835,-4.3915,-4.3961,-4.3966,-4.3986,-4.4039,-4.4088,-4.4089,-4.4109,-4.4144,-4.4139,-4.3986,-4.3965,-4.3944,-4.3921,-4.4149,-4.415,-4.4296,-4.4297,-4.4298]},{"header":{"parameterUnit":"m.s-1","parameterCategory":1,"la1":30.2991,"la2":30.254,"lo1":-89.0895,"lo2":-89.0444,"dy":0.0017,"dx":0.0017,"nx":28,"ny":28,"refTime":"2023-10-03T03:00:00:Z","depth":0,"parameterNumber":3,"parameterNumberName":"V-component_of_WINDS"},"data":[0,0,0,0,0,0,0,0,0,0,0,0,0,0,0,0,0,0,0,0,0,0,0,0,0,0,0,0,0,0,0,0,0,0,0,0,0,0,0,0,0,0,0,0,0,0,0,0,0,0,0,0,0,0,0,0,0,0,2.155,2.155,0,2.1557,2.1557,2.1558,2.1584,2.1584,2.1585,2.1585,2.1589,2.1588,2.1588,0,0,0,0,0,0,0,0,0,0,0,0,0,2.1555,2.1554,2.155,2.155,2.155,2.1557,2.1557,2.1558,2.1584,2.1584,2.1585,2.1586,2.1589,2.1588,2.1588,0,0,0,0,0,0,0,0,0,0,0,0,0,2.1556,2.1554,2.155,2.1564,2.1565,2.1557,2.1557,2.1558,2.1583,2.1584,2.1585,2.1586,2.1589,2.1588,2.1587,2.1565,0,0,2.1585,2.1585,0,0,0,0,0,0,0,0,2.1556,2.1556,2.1562,2.1563,2.1564,2.1571,2.156,2.156,2.1583,2.1576,2.1585,2.1586,2.1582,2.1581,2.1581,2.1565,2.1565,2.1585,2.1585,2.1584,2.1584,0,0,0,0,0,0,0,2.1556,2.1556,2.1553,2.1562,2.1563,2.1569,2.157,2.156,2.1574,2.1577,2.1579,2.158,2.1582,2.1581,2.1581,2.1565,2.1585,2.1585,2.1584,2.1584,2.1532,2.1531,0,0,0,0,0,0,2.1554,2.1555,2.1552,2.1553,2.1563,2.1568,2.1569,2.1568,2.1574,2.1576,2.1579,2.1581,2.1582,2.1582,2.1581,2.1556,2.1585,2.1584,2.1583,2.1533,2.1532,2.1531,0,0,0,0,0,0,2.1554,2.1554,2.1552,2.1555,2.1555,2.1567,2.1565,2.1567,2.1566,2.1575,2.1577,2.1576,2.1583,2.1582,2.1569,2.1556,2.1584,2.1583,2.1534,2.1533,2.1532,2.1504,0,0,0,0,0,0,2.1554,2.1554,2.1546,2.1554,2.1555,2.1541,2.1564,2.1567,2.1566,2.1568,2.1573,2.1574,2.1584,2.157,2.1569,2.1555,2.1582,2.1536,2.1534,2.1532,2.1506,2.1502,2.1498,0,0,0,0,0,2.1554,2.1536,2.1545,2.1545,2.1545,2.154,2.154,2.1552,2.1564,2.1556,2.1562,2.1574,2.1558,2.1569,2.1567,2.1553,2.1536,2.1534,2.1532,2.1508,2.1502,2.1498,0,0,0,0,0,0,2.1524,2.1538,2.1548,2.1532,2.1535,2.1545,2.1534,2.1546,2.1544,2.1546,2.156,2.1561,2.1546,2.1549,2.156,2.1533,2.1549,2.1547,2.1531,2.1526,2.1522,2.1521,2.1582,0,0,0,0,0,2.1516,2.1511,2.1523,2.1508,2.151,2.1522,2.152,2.1529,2.1532,2.1533,2.1538,2.1539,2.1534,2.1531,2.1527,2.1507,2.1508,2.1497,2.1493,2.149,2.1487,2.1477,2.1472,2.1524,2.1524,2.1524,0,0,2.1498,2.1505,2.1501,2.1502,2.1506,2.15,2.1522,2.1515,2.1511,2.1531,2.152,2.1524,2.1526,2.151,2.1503,2.1511,2.1473,2.1487,2.1484,2.1483,2.1474,2.1469,2.1465,2.1523,2.1523,2.1523,0,0,2.1462,2.1468,2.1456,2.146,2.1465,2.1474,2.1471,2.1479,2.1483,2.1473,2.1488,2.1483,2.1474,2.1475,2.1475,2.1442,2.1453,2.1441,2.1419,2.1409,2.1405,2.1401,2.1389,2.1385,2.1438,2.1438,2.1438,0,2.1439,2.1432,2.1448,2.1441,2.1441,2.1462,2.145,2.1452,2.1455,2.1454,2.1464,2.1455,2.1458,2.1442,2.1435,2.1434,2.143,2.1439,2.1404,2.1401,2.1398,2.1386,2.1382,2.1436,2.1436,2.1437,2.1437,0,2.1403,2.1398,2.1388,2.1393,2.1392,2.1382,2.1396,2.1393,2.1403,2.141,2.1399,2.1404,2.1402,2.1399,2.1408,2.1385,2.139,2.1402,2.1419,2.1391,2.138,2.1376,2.1434,2.1435,2.1435,2.1435,0,0,2.1346,2.1362,2.1358,2.1361,2.1369,2.1365,2.1357,2.1356,2.1353,2.1355,2.1348,2.1341,2.1353,2.1352,2.1362,2.1353,2.1327,2.1367,2.1367,2.1358,2.1302,2.1292,2.1287,2.1335,2.1335,2.1334,2.1301,0,2.1312,2.13,2.1315,2.1298,2.1294,2.1314,2.1307,2.131,2.1318,2.1314,2.1322,2.1317,2.1333,2.1333,2.1325,2.1332,2.1316,2.1335,2.1327,2.1326,2.1325,2.1281,2.1271,2.124,2.1298,2.1297,2.1296,0,2.1271,2.1273,2.1256,2.1267,2.1266,2.1259,2.126,2.1257,2.1262,2.1268,2.1269,2.1281,2.1272,2.129,2.1278,2.1291,2.1289,2.1292,2.1291,2.1289,2.1309,2.1278,2.123,2.1225,2.129,2.1291,2.1291,0,2.123,2.1229,2.1219,2.1221,2.1234,2.1228,2.1233,2.1239,2.1238,2.1239,2.1239,2.1238,2.1238,2.1237,2.1248,2.126,2.1235,2.1253,2.1238,2.1238,2.123,2.123,2.1181,2.1231,2.1231,2.1231,2.1231,0,2.119,2.1179,2.1202,2.1195,2.1184,2.1201,2.1189,2.1195,2.1201,2.1196,2.1213,2.1208,2.1224,2.122,2.1229,2.1218,2.1217,2.1221,2.1223,2.1219,2.1218,2.1217,2.1219,2.123,2.123,2.123,2.1231,0,2.1142,2.1157,2.1148,2.1162,2.1165,2.1155,2.1166,2.1161,2.117,2.1163,2.1163,2.1176,2.1173,2.1185,2.1183,2.1189,2.1172,2.1179,2.1171,2.1172,2.1156,2.1157,2.1103,2.1096,2.1151,2.1151,2.115,0,2.1115,2.1107,2.1121,2.112,2.1124,2.1122,2.1122,2.1139,2.1138,2.1144,2.1137,2.1136,2.1135,2.1128,2.1137,2.1136,2.1142,2.1123,2.1141,2.1138,2.1141,2.1141,2.114,2.1118,2.1118,2.1117,2.1117,0,2.1065,2.1074,2.1074,2.1077,2.1077,2.1079,2.1083,2.1081,2.1099,2.1097,2.1095,2.1095,2.1094,2.1092,2.1093,2.1096,2.1109,2.1111,2.1108,2.1102,2.1098,2.1099,2.1159,2.1112,2.1112,2.1113,2.1113,2.1113,2.1026,2.1021,2.103,2.103,2.1035,2.1038,2.1034,2.1044,2.1043,2.1044,2.1055,2.105,2.1056,2.1059,2.1062,2.1058,2.1067,2.1061,2.106,2.1058,2.1055,2.11,2.1058,2.1058,2.1059,2.1059,2.1059,0,2.0977,2.0984,2.0984,2.099,2.099,2.1005,2.101,2.1008,2.1005,2.101,2.101,2.1007,2.1006,2.1016,2.1015,2.101,2.1016,2.101,2.1009,2.101,2.1047,2.105,2.1005,2.1005,2.1005,2.1005,2.1005,2.1005,2.0951,2.0942,2.0952,2.0946,2.0954,2.0951,2.0953,2.0956,2.096,2.0957,2.0957,2.0964,2.0971,2.0972,2.0971,2.0974,2.0972,2.0963,2.0968,2.1002,2.1007,2.1012,2.1015,2.0963,2.0963,2.0931,2.093,2.093]}]]